SL-14 R/B, 23447

Orbit data source: Space-Track

SL-14 R/B, 23447 is space debris in LEO originally from a launch on Mon, 26 Dec 1994 UTC launched from the Plesetsk Missile And Space Complex (PKMTR). Debris objects in space refer to the collection of defunct objects orbiting the Earth. Examples of debris include non-operational satellites, rocket bodies, and fragments generated from explosions, collisions, or faulty payload assembly.

Loading next visibility...
Identifier
23447, 1994-086G
Orbit
LEO
Country
Flag of CISCIS
Related business
Manufacturer
Yuzhnoe
Mission
Spacecraft
Bus & Motor
S5M, Unknown motor
Mass
1,600 kg wet, 1,600 kg dry
Launch date (UTC)
1994-12-26 (31 years ago)
Launch vehicle
Unknown
Launch site
Plesetsk Missile And Space Complex (PKMTR)
Object type
Payload
Rocket body
Debris
Shape & HBR
Cyl, 1.4 m
Radar Cross Section
7.351 m², Large (>1 m²)

Expand to show TLE details & history
Last TLE update: 10 hours ago

TLE from 10 hours ago
0 SL-14 R/B
1 23447U 94086G   26071.22424968  .00000009  00000-0 -67109-5 0  9998
2 23447  82.5637 107.0184 0036768 308.1290 120.9534 12.55515394430097
Epoch: 2026-03-12T05:22Z
TLE epoch observation values (Epoch: 2026-03-12T05:22:55.172Z)
Latitude
68.26793°
Longitude
-124.57186°
Altitude
1,468.166 km
Speed
7.128 km/s
True Right ascension
08h 24m 08s
True Declination
68° 09' 36"
Sunlit
Object was in daylight at epoch
Visualization orbit readout
Latitude
Unknown
Longitude
Unknown
Altitude
Unknown
Speed
Unknown
Apparent Right ascension
Unknown
Apparent Declination
Unknown
Sunlit
N/A
Visualization observer readout
Local Sidereal Time
19:31:24
Azimuth
Unknown
Elevation
Unknown
Doppler factor
Unknown
Orbital elements
Apogee altitude
1,467.582 km
Perigee altitude
1,410.099 km
Semi-major axis
7,816.978 km
Eccentricity
0.00368
Inclination
82.5637°
RAAN
107.0184°
Arg. of periapsis
308.129°
True anomaly
121.31387°
Mean anomaly
120.9534°
Eccentric anomaly
121.13372°
Mean motion
3.1404 °/min
Orbital period
114.64 mins
BSTAR
-0.0000067109
Loading maneuver chart data...
Computing Atmospheric mass density...
Loading historical data...
Loading historical data...
Loading historical data...
Loading historical data...
Loading historical data...
Loading historical data...
Loading historical data...

Documentation

Showing up to 5 results
|